Inquirer Daily News

Weather

Get conditions and forecasts for any City, State, ZIP code or Country:  
Trenton, NJ
on Monday, November 26, 2012

Monday
Previous Day Next Day
Daily Summary
 ActualAverageRecord
Temperature
Mean Temperature °F 42°F  
Max Temperature 49°F 50°F 70°F (1946)
Min Temperature 25°F 34°F 14°F (1938)
Degree Days
Heating Degree Days 28 23  
Month to date heating degree days 581 485  
Since 1 July heating degree days 888 882  
Cooling Degree Days 0 0  
Month to date cooling degree days 0 0  
Year to date cooling degree days 1234 965  
Moisture
Dew Point 22°F   
Average Humidity 58    
Maximum Humidity 81    
Minimum Humidity 34    
Precipitation
Precipitation 0.00 in 0.13 in 1.70 in (1996)
Month to date precipitation 0.58 2.78  
Year to date precipitation 32.63 42.21  
Wind
Wind Speed 4 mph   
Max Wind Speed 13 mph   
Max Gust Speed 20 mph   
Visibility 10 miles   
Events     

Key: T is trace of precipitation, MM is missing value
Source: NWS Daily Summary
Time(EST)TemperatureDew PointHumidity Pressure Visibility Wind DirectionWind SpeedGust SpeedPrecipitationEvents Conditions
12:53 AM 28.9°F 19.9°F 69% 29.97 in 10.0 miles Calm Calm - N/A   Clear
1:53 AM 27.0°F 19.0°F 72% 29.98 in 9.0 miles Calm Calm - N/A   Clear
2:53 AM 26.1°F 19.0°F 75% 29.99 in 8.0 miles Calm Calm - N/A   Clear
3:53 AM 26.1°F 19.9°F 78% 30.00 in 9.0 miles Calm Calm - N/A   Clear
4:53 AM 27.0°F 21.0°F 78% 30.00 in 9.0 miles Calm Calm - N/A   Clear
5:53 AM 28.0°F 21.9°F 78% 30.03 in 9.0 miles Calm Calm - N/A   Clear
6:53 AM 28.0°F 21.9°F 78% 30.05 in 9.0 miles SW 5.8 mph - N/A   Clear
7:53 AM 30.9°F 21.9°F 69% 30.08 in 9.0 miles WSW 6.9 mph - N/A   Clear
8:53 AM 34.0°F 23.0°F 64% 30.11 in 10.0 miles West 5.8 mph - N/A   Clear
9:53 AM 39.9°F 25.0°F 55% 30.12 in 10.0 miles WNW 5.8 mph - N/A   Scattered Clouds
10:53 AM 45.0°F 25.0°F 46% 30.13 in 10.0 miles WNW 11.5 mph - N/A   Clear
11:53 AM 46.9°F 23.0°F 39% 30.12 in 10.0 miles North 13.8 mph - N/A   Clear
12:53 PM 46.9°F 24.1°F 41% 30.11 in 10.0 miles WNW 10.4 mph - N/A   Clear
1:53 PM 48.0°F 21.9°F 36% 30.11 in 10.0 miles NNW 8.1 mph - N/A   Clear
2:53 PM 48.0°F 21.0°F 34% 30.12 in 10.0 miles WNW 6.9 mph - N/A   Clear
3:53 PM 46.9°F 21.0°F 36% 30.14 in 10.0 miles NW 6.9 mph - N/A   Clear
4:53 PM 45.0°F 21.0°F 39% 30.16 in 10.0 miles WNW 4.6 mph - N/A   Clear
5:53 PM 43.0°F 21.0°F 42% 30.18 in 10.0 miles Calm Calm - N/A   Clear
6:53 PM 39.0°F 21.0°F 49% 30.20 in 10.0 miles West 3.5 mph - N/A   Clear
7:53 PM 39.0°F 21.9°F 50% 30.21 in 10.0 miles Calm Calm - N/A   Clear
8:53 PM 35.1°F 21.9°F 59% 30.21 in 10.0 miles Calm Calm - N/A   Clear
9:53 PM 33.1°F 21.9°F 64% 30.22 in 10.0 miles Calm Calm - N/A   Clear
10:53 PM 28.9°F 21.9°F 75% 30.22 in 10.0 miles Calm Calm - N/A   Clear
11:53 PM 30.9°F 23.0°F 72% 30.24 in 10.0 miles North 3.5 mph - N/A   Clear
Astronomy
Sunrise:06:57 AM (EST) Moon Rise:03:26 PM (EST)
Sunset:04:35 PM (EST) Moon Set:05:05 AM (EST)
Moon Phase
Nov. 26 Nov. 28 Dec. 06 Dec. 13 Dec. 20

Copyright © 2014 The Weather Underground, Inc.